RH
30 30 31 31 29 29 29 28 29 31 31 29 28 32 38 42 44 43 40 39 40 42 42 42 43 44 45 45 46 45 45 43 42 41 39 39 38 37 36 36 36 36
32 31 31 30 30 31 31 31 32 33 33 32 31 33 37 42 45 44 43 43 45 45 46 46 46 48 49 49 49 49 50 49 48 47 46 45 43 41 41 40 39 39
32 31 30 30 31 32 32 33 34 34 33 34 35 36 38 42 44 45 46 47 48 48 48 48 49 50 50 51 51 52 52 51 50 50 49 49 48 46 45 45 44 44
32 31 30 30 31 33 34 34 34 34 34 35 38 40 42 45 45 44 45 47 47 48 48 48 49 49 49 50 51 52 52 51 51 50 49 50 49 50 50 49 49 50
33 31 31 31 32 33 34 35 35 36 37 39 41 44 45 46 46 44 45 46 46 47 47 48 48 49 49 48 47 47 47 49 50 49 49 50 50 51 51 51 53 54
33 32 32 32 32 35 36 37 38 39 41 43 44 46 47 46 46 46 46 45 46 47 47 48 49 49 48 47 45 44 43 44 46 47 47 49 51 53 53 54 56 56
34 33 33 34 35 37 38 39 40 42 43 45 47 48 48 48 48 46 45 44 45 46 46 47 48 47 46 47 48 48 46 46 48 49 48 50 52 53 54 55 57 58
35 35 35 36 38 38 39 40 41 42 44 47 48 47 48 50 50 48 46 45 46 45 45 47 49 49 50 51 53 55 56 56 56 56 56 56 55 56 56 57 57 58
37 37 37 38 39 39 39 41 42 44 46 46 47 47 48 50 51 50 48 46 46 46 47 52 54 54 54 56 58 59 61 62 63 63 65 65 64 65 64 63 63 63
38 39 39 38 38 39 40 43 45 47 47 46 46 47 49 50 50 50 50 50 51 52 55 57 59 60 61 62 63 64 65 66 67 70 72 73 73 74 74 75 76 76
39 39 39 39 39 40 42 45 46 47 47 47 49 50 50 51 51 52 54 57 59 59 60 60 61 64 67 69 70 71 72 72 73 75 77 79 80 80 82 85 86 86
40 39 39 40 41 43 46 47 46 47 47 48 50 53 54 54 57 59 60 62 62 62 63 63 64 66 70 74 76 76 77 78 80 82 83 84 86 87 88 90 92 92
39 39 40 42 44 47 49 48 49 49 46 45 50 56 58 61 65 68 68 69 69 69 70 70 71 75 78 81 83 83 85 86 88 91 91 91 91 91 91 92 92 93
40 40 42 45 48 50 49 49 51 50 47 48 53 59 64 68 71 74 76 77 77 77 78 78 81 85 86 88 89 89 92 96 97 97 97 97 96 94 94 94 94 95
41 43 47 50 51 49 49 51 51 51 52 56 61 66 71 76 78 80 82 85 86 86 87 88 92 94 94 96 96 96 98 100 100 101 100 99 100 99 97 98 98 98
44 47 50 51 51 48 48 51 53 57 63 69 75 79 84 87 88 90 92 94 96 97 97 99 99 99 100 99 95 95 100 102 100 100 102 100 100 100 100 100 100 99
47 51 52 52 50 47 48 55 63 71 78 83 88 91 93 95 96 99 100 100 101 100 101 101 99 100 103 94 81 80 91 102 104 101 100 101 100 99 98 96 94 93
51 54 55 54 51 51 58 69 78 84 89 92 96 97 99 100 100 101 102 101 102 101 101 100 98 102 102 86 70 68 73 83 97 102 101 101 101 99 96 94 91 89
55 57 56 54 55 62 73 82 87 92 95 97 100 100 101 101 100 101 101 101 100 98 100 101 97 100 101 83 69 69 64 62 81 99 102 100 101 100 98 98 98 97
58 59 56 57 66 77 85 90 94 97 98 99 100 100 101 100 100 101 100 98 95 95 100 102 94 96 100 81 64 63 58 57 77 99 103 101 101 101 100 100 101 100
60 58 59 67 78 87 92 95 98 99 99 100 100 100 100 100 100 100 99 97 94 94 99 98 92 97 96 75 58 54 52 62 86 102 103 101 100 100 100 101 101 100
60 60 66 79 88 93 97 99 100 100 100 101 100 100 100 100 99 100 100 99 98 97 100 96 91 95 90 69 57 54 53 73 98 104 101 101 101 100 100 99 99 100
61 66 78 90 95 98 100 100 100 100 100 100 100 100 100 100 100 100 99 100 100 98 101 98 91 93 88 66 54 57 64 83 102 103 99 100 98 96 97 96 95 96
69 78 89 96 99 100 100 100 100 100 100 100 100 100 101 100 100 101 99 100 101 98 101 103 96 94 90 71 55 59 71 86 101 104 100 97 93 90 90 89 89 90
80 89 96 99 100 100 100 100 101 100 100 101 100 100 101 100 100 101 99 99 101 100 100 103 96 88 86 80 67 62 68 82 98 103 100 96 91 88 89 88 87 86
89 95 99 100 100 100 100 100 100 100 100 100 101 100 100 101 99 100 101 101 103 100 95 95 93 85 86 89 81 68 67 82 99 102 98 97 95 92 93 89 83 79
Wind_Speed
13 13 13 14 14 14 15 16 16 17 17 17 17 17 17 17 17 18 19 20 20 20 19 19 19 18 19 19 18 18 18 19 19 18 18 19 19 20 20 20 20 21
12 13 13 14 14 14 15 16 16 17 17 17 17 18 18 17 17 19 20 21 20 20 20 19 19 19 19 19 19 19 19 20 19 19 19 19 20 20 20 20 20 21
12 13 14 14 14 15 16 16 16 16 17 17 17 17 18 17 18 19 20 20 20 20 20 20 20 20 20 20 20 20 20 20 20 20 20 20 20 20 20 20 20 20
13 14 14 14 15 15 15 16 16 16 17 17 17 17 17 18 19 20 20 19 20 20 20 20 20 20 20 21 21 21 21 21 21 21 21 21 20 19 20 20 20 21
14 14 14 15 15 15 15 16 17 17 17 17 17 17 17 18 20 20 20 20 20 21 21 21 21 22 22 22 22 21 21 22 21 21 22 23 21 20 21 21 21 21
15 15 15 15 15 15 16 17 17 17 17 17 17 17 18 19 19 20 20 21 22 22 23 23 23 23 23 23 24 24 23 24 23 22 24 26 25 23 22 22 22 23
16 16 16 15 15 16 16 17 17 17 17 17 17 18 18 18 19 20 21 22 23 24 25 25 25 25 25 25 26 26 25 25 25 24 25 26 26 25 24 24 24 25
16 16 16 16 16 16 17 17 17 17 17 17 18 18 18 19 20 21 22 23 24 25 27 27 26 27 26 26 26 26 26 26 25 26 26 26 27 27 27 25 26 27
17 17 16 16 17 17 17 17 17 17 17 18 18 19 19 20 21 22 23 24 25 27 27 27 27 27 26 26 26 27 27 27 26 27 27 27 27 28 28 27 27 28
17 17 17 17 17 17 17 17 17 17 17 18 19 20 20 21 21 22 24 25 26 26 27 27 27 27 27 27 27 27 27 28 28 27 27 28 28 29 28 27 27 27
17 17 17 17 17 18 18 17 17 17 18 19 20 21 21 22 23 24 24 25 26 26 27 28 28 28 27 27 27 26 27 28 28 28 28 28 29 29 28 26 26 26
17 17 17 17 17 18 17 17 18 18 19 21 22 22 23 23 24 24 24 25 26 27 27 28 28 28 28 27 27 26 27 28 28 28 28 28 28 28 27 26 26 26
17 17 17 17 17 17 17 17 18 19 21 23 24 23 24 24 24 25 25 25 26 26 26 27 27 27 27 27 26 26 27 27 27 27 27 27 27 27 27 26 27 27
18 17 17 17 17 17 17 18 19 20 22 24 24 24 24 25 24 25 25 25 25 25 25 26 26 25 25 25 25 26 25 25 26 25 25 27 28 29 30 30 31 31
18 17 17 17 17 18 18 19 20 22 23 24 24 24 24 24 24 24 24 24 24 24 24 24 23 23 23 23 25 27 27 26 27 26 27 29 30 32 35 35 36 36
18 17 17 17 17 19 20 21 22 23 24 23 22 22 23 23 22 22 21 22 22 23 23 23 23 24 26 28 30 32 33 32 31 31 31 32 32 33 34 34 35 36
18 18 18 18 18 20 22 23 23 22 22 21 21 21 21 20 20 20 21 22 23 24 25 26 27 27 29 33 36 36 37 37 35 33 33 33 32 32 32 32 32 31
18 18 18 18 20 22 23 22 21 20 20 19 19 20 20 21 21 22 23 23 24 26 27 28 30 30 32 35 37 37 37 37 35 32 31 31 30 30 31 31 31 31
17 18 19 21 22 22 21 20 19 19 19 18 19 21 22 23 24 24 24 24 26 28 29 30 32 33 34 36 38 38 37 37 37 35 31 29 28 28 29 30 30 31
17 19 21 23 23 21 19 19 18 17 18 18 20 21 22 23 23 24 25 26 28 30 30 31 34 35 35 37 38 38 37 37 38 35 30 28 28 28 29 29 30 30
18 20 23 23 21 19 18 18 17 17 18 19 19 20 21 21 21 22 24 26 29 29 29 32 35 35 35 38 39 37 36 37 35 30 27 28 29 28 29 29 30 31
21 23 24 21 19 18 18 17 16 17 19 19 20 20 20 20 20 20 21 25 27 28 28 33 37 37 36 38 39 36 36 37 32 27 26 27 28 29 29 30 30 30
23 23 22 20 18 18 18 17 17 17 18 19 20 20 20 20 21 20 21 23 26 27 27 31 38 39 37 38 39 36 36 36 30 25 26 27 27 29 29 29 30 30
23 22 20 18 17 17 18 19 19 19 19 20 21 22 23 22 22 22 21 21 22 25 26 29 35 39 37 37 38 34 34 34 29 24 25 26 27 28 28 29 30 32
21 19 18 17 17 18 20 22 21 21 21 21 22 22 23 23 22 21 21 21 22 26 29 30 35 38 36 35 36 34 34 35 30 24 23 25 25 27 28 29 30 31
19 18 17 17 19 22 22 22 22 21 21 22 22 23 22 23 22 21 23 26 28 30 32 32 33 35 34 34 35 35 35 35 29 22 22 25 26 27 29 30 29 28
Wind_Direction
327 325 323 320 319 318 318 319 317 315 314 314 313 310 309 308 311 314 316 315 314 313 312 312 310 309 307 305 302 299 296 294 292 291 289 286 284 283 282 280 278 277
321 321 318 316 314 313 314 313 312 311 310 310 310 308 307 307 309 311 312 311 310 310 310 309 308 308 306 304 302 299 296 293 291 289 287 284 283 282 280 279 278 275
319 320 317 314 312 311 311 310 309 309 307 307 307 307 308 307 308 309 308 308 307 306 307 307 305 305 303 302 301 298 295 293 292 290 287 285 283 282 280 279 278 275
318 318 316 314 312 310 311 310 309 308 307 307 307 306 307 306 307 308 306 306 305 305 305 304 303 302 301 299 298 296 295 294 293 292 289 285 283 282 281 280 278 275
316 317 316 314 311 310 310 309 308 308 307 306 306 307 306 306 307 307 307 307 306 305 305 304 303 301 300 299 296 294 294 293 292 292 290 288 286 284 282 280 278 276
315 315 314 312 311 310 309 308 308 307 307 306 306 306 305 305 306 306 306 307 306 306 305 304 302 301 299 299 297 294 293 292 290 289 289 288 287 285 283 281 279 277
313 314 313 311 310 309 308 307 308 307 306 306 305 304 304 303 304 304 305 306 306 305 304 302 301 300 299 298 296 294 293 291 290 289 287 286 286 285 283 281 280 278
312 313 311 310 310 309 308 307 308 308 307 306 304 304 304 303 303 304 305 305 305 304 302 301 299 299 298 296 294 292 291 289 287 287 285 283 283 282 280 279 278 277
310 311 309 309 309 308 308 308 307 308 307 306 305 304 304 303 302 303 304 305 304 302 301 299 298 297 296 294 291 290 289 287 284 283 283 281 280 278 277 276 275 274
308 308 308 308 308 308 307 307 306 306 305 305 304 304 304 303 303 303 304 304 302 301 300 298 297 296 294 292 289 288 286 285 283 280 277 276 275 275 275 273 271 271
306 307 307 306 306 307 305 304 305 304 305 305 304 304 303 303 303 303 302 301 300 299 299 298 297 295 293 291 288 286 284 282 280 277 274 273 272 272 273 271 269 269
305 305 306 305 305 305 303 303 304 304 306 307 305 303 303 302 301 300 299 298 297 297 296 295 295 294 292 290 287 285 283 280 277 274 274 273 272 272 271 268 266 266
304 304 305 304 303 302 301 302 303 305 307 308 305 302 302 301 298 297 296 295 294 294 293 293 293 291 288 286 284 282 279 277 276 274 274 273 272 270 269 267 265 265
303 304 304 303 302 300 301 302 303 305 307 307 304 301 300 299 297 295 294 292 292 291 290 290 289 286 284 283 281 280 277 274 274 274 273 273 271 269 269 267 265 263
303 303 302 301 301 301 302 303 304 305 305 303 300 299 297 296 295 294 291 290 289 288 288 287 285 281 280 279 279 280 278 275 274 273 271 272 271 271 271 270 268 265
301 301 300 300 300 303 305 305 304 304 302 299 296 294 294 293 292 291 288 287 287 287 286 283 281 280 280 281 282 282 280 278 278 275 274 273 273 273 273 273 272 269
300 299 298 298 300 304 305 303 301 299 296 295 293 292 291 291 290 287 285 286 286 285 284 282 282 281 283 287 290 290 287 283 279 278 277 276 275 275 274 274 274 272
298 298 298 299 303 305 302 299 297 295 293 292 291 291 291 290 288 286 285 285 285 284 283 284 285 285 287 293 297 297 295 292 286 282 282 280 278 277 277 277 277 275
297 297 299 302 303 301 297 295 293 292 292 291 290 291 290 288 288 287 285 285 286 286 284 284 288 289 291 296 300 300 300 299 294 290 288 285 282 279 277 276 274 272
296 298 301 303 300 296 293 292 290 290 290 290 291 291 289 287 287 286 285 287 291 290 286 286 290 293 293 298 302 304 304 303 299 296 293 288 283 278 275 272 270 268
297 301 303 301 296 293 291 290 288 289 290 291 291 289 287 286 286 284 285 288 292 292 288 288 292 293 295 300 304 306 307 306 303 299 295 289 283 277 274 272 270 268
301 302 301 297 293 292 290 288 287 288 291 291 290 287 286 285 284 282 282 285 288 289 286 288 294 296 299 303 306 307 308 307 304 299 295 289 283 279 277 275 273 271
300 300 297 293 293 291 289 289 289 289 291 291 290 288 287 286 283 282 281 282 284 285 283 286 294 299 302 305 308 310 310 307 302 298 295 291 287 285 283 280 278 275
297 294 291 290 290 289 289 290 290 289 290 290 289 288 287 287 286 284 283 281 280 282 282 284 291 299 303 306 311 315 314 309 303 297 295 294 293 291 288 286 284 281
292 289 287 288 288 288 288 289 288 288 288 288 287 286 286 287 287 284 284 284 282 284 287 287 292 300 305 307 311 317 316 311 305 299 297 297 296 296 294 292 289 287
288 286 286 287 289 288 287 286 286 286 286 286 286 285 285 286 286 285 285 287 288 291 295 295 295 299 303 304 307 314 316 312 307 304 302 300 300 300 297 296 295 294